Flag for U.S.A. Weather past 2 weeks in St. George, Utah, U.S.A.

Now
97 °F

Sunny.


Feels Like: 93 °F
Forecast: 72 / 98 °F
Wind: 7 mph from North

Location: Saint George

Current Time: Aug 27, 2015 at 7:13:44 PM

Latest Report: Aug 27, 2015 at 6:55 PM


Visibility: 10 mi

Pressure: 30.02 "Hg (27.35 "Hg at 842m altitude)

Humidity: 19%

Dew point: 48 °F

Location of St. GeorgeLocation

Historic Weather in St. George — Graph

°F

St. George temperature yesterday

Maximum temperature yesterday: 91 °F (at 6:35 PM)
Minimum temperature yesterday: 70 °F (at 8:55 AM)
Average temperature yesterday: 77 °F

Past Weeks' High & Low Weather Summary

 TemperatureHumidityPressure
High106 °F (Aug 16, 3:55 PM)78% (Aug 26, 8:55 AM)30.22 "Hg (Aug 26, 8:55 AM)
Low68 °F (Aug 27, 7:35 AM)10% (Aug 17, 5:15 PM)29.76 "Hg (Aug 18, 6:15 PM)
Average86 °F30%29.99 "Hg
* Reported Aug 12 5:15 PM — Aug 27 5:55 PM, St. George, Weather by CustomWeather, © 2015

Note: Actual official high and low records may vary slightly from our data, if they occured in-between our weather recording intervals... More about our weather records

Advertising

St. George weather history for previous 24 hours

 ConditionsComfort  
Time TempWeatherWind HumidityBarometerVisibility
5:55 PM
Thu, Aug 27
97 °FSunny.No wind20%30.02 "Hg10 mi
5:35 PM99 °FSunny.7 mph21%30.02 "Hg10 mi
5:15 PM97 °FSunny.6 mph22%30.03 "Hg10 mi
4:35 PM97 °FSunny.7 mph23%30.04 "Hg10 mi
3:55 PM97 °FSunny.3 mph23%30.06 "Hg10 mi
3:35 PM95 °FSunny.3 mph25%30.08 "Hg10 mi
3:15 PM93 °FSunny.3 mph26%30.08 "Hg10 mi
2:55 PM93 °FSunny.5 mph26%30.10 "Hg10 mi
2:35 PM93 °FSunny.3 mph26%30.11 "Hg10 mi
2:15 PM90 °FSunny.3 mph29%30.13 "Hg10 mi
1:55 PM90 °FSunny.3 mph29%30.14 "Hg10 mi
1:35 PM88 °FSunny.3 mph33%30.16 "Hg10 mi
1:15 PM88 °FSunny.No wind33%30.17 "Hg10 mi
12:55 PM88 °FSunny.5 mph33%30.18 "Hg10 mi
12:35 PM84 °FSunny.5 mph37%30.19 "Hg10 mi
11:55 AM84 °FSunny.No wind37%30.20 "Hg10 mi
11:35 AM82 °FSunny.No wind40%30.21 "Hg10 mi
11:15 AM82 °FSunny.5 mph40%30.21 "Hg10 mi
10:55 AM81 °FSunny.No wind42%30.22 "Hg10 mi
10:35 AM79 °FSunny.3 mph45%30.22 "Hg10 mi
10:15 AM79 °FSunny.No wind48%30.22 "Hg10 mi
9:55 AM75 °FSunny.No wind54%30.22 "Hg10 mi
9:35 AM73 °FSunny.3 mph57%30.22 "Hg10 mi
9:15 AM73 °FSunny.3 mph57%30.22 "Hg10 mi
8:55 AM72 °FSunny.3 mph61%30.22 "Hg10 mi
8:35 AM73 °FSunny.6 mph57%30.22 "Hg10 mi
8:15 AM72 °FSunny.No wind61%30.21 "Hg10 mi
7:55 AM70 °FClear.No wind64%30.20 "Hg10 mi
7:35 AM68 °FClear.No wind69%30.20 "Hg10 mi
7:15 AM70 °FClear.No wind60%30.19 "Hg10 mi
6:55 AM70 °FClear.No wind60%30.20 "Hg10 mi
6:35 AM70 °FClear.5 mph60%30.19 "Hg10 mi
6:15 AM70 °FClear.6 mph60%30.18 "Hg10 mi
5:55 AM70 °FClear.7 mph64%30.18 "Hg10 mi
5:35 AM70 °FClear.7 mph64%30.17 "Hg10 mi
5:15 AM70 °FClear.8 mph64%30.16 "Hg10 mi
4:55 AM70 °FClear.8 mph64%30.16 "Hg10 mi
4:35 AM72 °FClear.8 mph65%30.16 "Hg10 mi
4:15 AM72 °FClear.6 mph61%30.16 "Hg10 mi
3:35 AM70 °FClear.3 mph64%30.16 "Hg10 mi
3:15 AM70 °FClear.8 mph64%30.15 "Hg10 mi
2:55 AM72 °FClear.6 mph61%30.17 "Hg10 mi
2:35 AM70 °FClear.6 mph64%30.18 "Hg10 mi
2:15 AM72 °FClear.9 mph61%30.18 "Hg10 mi
1:55 AM72 °FClear.9 mph61%30.19 "Hg10 mi
1:35 AM73 °FClear.No wind57%30.20 "Hg10 mi
1:15 AM73 °FPassing clouds.3 mph57%30.20 "Hg10 mi
12:55 AM73 °FPassing clouds.No wind61%30.19 "Hg10 mi
12:35 AM73 °FPassing clouds.5 mph61%30.19 "Hg10 mi
12:15 AM73 °FPassing clouds.5 mph57%30.18 "Hg10 mi
11:55 PM
Wed, Aug 26
73 °FPassing clouds.8 mph57%30.18 "Hg10 mi
11:35 PM75 °FClear.5 mph57%30.18 "Hg10 mi
11:15 PM75 °FClear.No wind57%30.19 "Hg10 mi
10:55 PM73 °FClear.3 mph61%30.18 "Hg10 mi
10:35 PM75 °FClear.8 mph61%30.18 "Hg10 mi
9:55 PM75 °FClear.8 mph57%30.16 "Hg10 mi
9:35 PM75 °FClear.6 mph54%30.15 "Hg10 mi
9:15 PM77 °FClear.5 mph47%30.15 "Hg10 mi
8:55 PM79 °FScattered clouds.6 mph45%30.15 "Hg10 mi
8:35 PM79 °FPartly sunny.7 mph45%30.15 "Hg10 mi
8:15 PM77 °FOvercast.8 mph51%30.15 "Hg10 mi
7:55 PM75 °FThundershowers. Partly sunny.16 mph54%30.13 "Hg10 mi
7:35 PM77 °FThundershowers. Partly sunny.22 mph47%30.13 "Hg10 mi
7:15 PM82 °FThundershowers. Broken clouds.28 mph37%30.12 "Hg7 mi
Weather by CustomWeather, © 2015

See weather overviewHow to use our weather pages